Time,TemperatureF,DewpointF,PressureIn,WindDirection,WindDirectionDegrees,WindSpeedMPH,WindSpeedGustMPH,Humidity,HourlyPrecipIn,Conditions,Clouds,dailyrainin,SoftwareType,DateUTC
2013-05-16 00:02:00,62.1,58.8,29.99,West,270,3.0,7.0,89,0.00,,,0.00,meteohub,2013-05-16 07:02:00,
2013-05-16 00:07:00,62.1,58.5,29.99,NW,315,5.0,7.0,88,0.00,,,0.00,meteohub,2013-05-16 07:07:00,
2013-05-16 00:12:00,62.1,57.7,29.99,West,270,4.0,7.0,86,0.00,,,0.00,meteohub,2013-05-16 07:12:00,
2013-05-16 00:17:00,62.1,57.6,29.99,South,180,4.0,6.0,85,0.00,,,0.00,meteohub,2013-05-16 07:17:00,
2013-05-16 00:22:00,62.1,57.6,29.99,West,270,4.0,6.0,85,0.00,,,0.00,meteohub,2013-05-16 07:22:00,
2013-05-16 00:27:00,62.1,57.2,29.99,West,270,2.0,6.0,84,0.00,,,0.00,meteohub,2013-05-16 07:27:00,
2013-05-16 00:32:00,62.2,57.4,29.99,SW,225,3.0,6.0,84,0.00,,,0.00,meteohub,2013-05-16 07:32:00,
2013-05-16 00:37:00,62.1,57.2,29.99,West,270,6.0,6.0,84,0.00,,,0.00,meteohub,2013-05-16 07:37:00,
2013-05-16 00:42:00,62.1,57.2,29.99,West,270,5.0,6.0,84,0.00,,,0.00,meteohub,2013-05-16 07:42:00,
2013-05-16 00:47:00,62.1,57.2,29.99,West,270,2.0,6.0,84,0.00,,,0.00,meteohub,2013-05-16 07:47:00,
2013-05-16 00:52:00,62.1,57.2,29.99,West,270,3.0,6.0,84,0.00,,,0.00,meteohub,2013-05-16 07:52:00,
2013-05-16 00:57:00,62.1,57.2,29.99,West,270,4.0,5.0,84,0.00,,,0.00,meteohub,2013-05-16 07:57:00,
2013-05-16 01:02:00,62.1,57.2,29.99,West,270,1.0,4.0,84,0.00,,,0.00,meteohub,2013-05-16 08:02:00,
2013-05-16 01:07:00,62.1,56.8,29.99,West,270,2.0,4.0,83,0.00,,,0.00,meteohub,2013-05-16 08:07:00,
2013-05-16 01:12:00,61.9,56.7,29.99,West,270,3.0,4.0,83,0.00,,,0.00,meteohub,2013-05-16 08:12:00,
2013-05-16 01:17:00,61.9,56.3,29.99,South,180,2.0,5.0,82,0.00,,,0.00,meteohub,2013-05-16 08:17:00,
2013-05-16 01:22:00,61.9,56.7,29.98,South,180,2.0,6.0,83,0.00,,,0.00,meteohub,2013-05-16 08:22:00,
2013-05-16 01:27:00,61.9,56.7,29.98,SE,135,2.0,6.0,83,0.00,,,0.00,meteohub,2013-05-16 08:27:00,
2013-05-16 01:32:00,61.9,56.7,29.98,South,180,2.0,6.0,83,0.00,,,0.00,meteohub,2013-05-16 08:32:00,
2013-05-16 01:37:00,61.9,56.7,29.98,West,270,2.0,4.0,83,0.00,,,0.00,meteohub,2013-05-16 08:37:00,
2013-05-16 01:42:00,61.9,56.7,29.97,West,270,2.0,4.0,83,0.00,,,0.00,meteohub,2013-05-16 08:42:00,
2013-05-16 01:47:00,61.9,56.7,29.98,South,180,2.0,6.0,83,0.00,,,0.00,meteohub,2013-05-16 08:47:00,
2013-05-16 01:52:00,62.1,56.8,29.98,SE,135,3.0,6.0,83,0.00,,,0.00,meteohub,2013-05-16 08:52:00,
2013-05-16 01:57:00,62.1,56.8,29.98,South,180,3.0,6.0,83,0.00,,,0.00,meteohub,2013-05-16 08:57:00,
2013-05-16 02:02:00,62.1,56.8,29.98,South,180,2.0,4.0,83,0.00,,,0.00,meteohub,2013-05-16 09:02:00,
2013-05-16 02:07:00,62.1,56.8,29.98,West,270,2.0,4.0,83,0.00,,,0.00,meteohub,2013-05-16 09:07:00,
2013-05-16 02:12:00,62.1,56.8,29.98,South,180,1.0,4.0,83,0.00,,,0.00,meteohub,2013-05-16 09:12:00,
2013-05-16 02:17:00,62.1,56.8,29.97,WSW,248,2.0,2.0,83,0.00,,,0.00,meteohub,2013-05-16 09:17:00,
2013-05-16 02:22:00,62.1,56.8,29.97,South,180,2.0,4.0,83,0.00,,,0.00,meteohub,2013-05-16 09:22:00,
2013-05-16 02:27:00,62.1,56.8,29.97,West,270,1.0,6.0,83,0.00,,,0.00,meteohub,2013-05-16 09:27:00,
2013-05-16 02:32:00,62.1,56.8,29.97,West,270,2.0,6.0,83,0.00,,,0.00,meteohub,2013-05-16 09:32:00,
2013-05-16 02:37:00,62.1,56.5,29.97,West,270,1.0,6.0,82,0.00,,,0.00,meteohub,2013-05-16 09:37:00,
2013-05-16 02:42:00,62.1,56.5,29.97,West,270,2.0,4.0,82,0.00,,,0.00,meteohub,2013-05-16 09:42:00,
2013-05-16 02:47:00,62.1,56.8,29.97,South,180,2.0,4.0,83,0.00,,,0.00,meteohub,2013-05-16 09:47:00,
2013-05-16 02:52:00,62.1,56.8,29.97,West,270,2.0,4.0,83,0.00,,,0.00,meteohub,2013-05-16 09:52:00,
2013-05-16 02:57:00,62.1,56.8,29.97,West,270,2.0,3.0,83,0.00,,,0.00,meteohub,2013-05-16 09:57:00,
2013-05-16 03:02:00,62.1,56.8,29.97,SW,225,2.0,3.0,83,0.00,,,0.00,meteohub,2013-05-16 10:02:00,
2013-05-16 03:07:00,62.1,56.5,29.97,SSW,203,1.0,4.0,82,0.00,,,0.00,meteohub,2013-05-16 10:07:00,
2013-05-16 03:12:00,62.1,56.5,29.96,South,180,3.0,4.0,82,0.00,,,0.00,meteohub,2013-05-16 10:12:00,
2013-05-16 03:17:00,61.9,56.3,29.97,South,180,3.0,4.0,82,0.00,,,0.00,meteohub,2013-05-16 10:17:00,
2013-05-16 03:22:00,62.1,56.5,29.97,South,180,6.0,6.0,82,0.00,,,0.00,meteohub,2013-05-16 10:22:00,
2013-05-16 03:27:00,62.1,56.5,29.97,West,270,3.0,6.0,82,0.00,,,0.00,meteohub,2013-05-16 10:27:00,
2013-05-16 03:32:00,61.9,56.3,29.96,West,270,2.0,6.0,82,0.00,,,0.00,meteohub,2013-05-16 10:32:00,
2013-05-16 03:37:00,61.9,56.3,29.96,SW,225,1.0,6.0,82,0.00,,,0.00,meteohub,2013-05-16 10:37:00,
2013-05-16 03:42:00,61.9,56.3,29.97,West,270,2.0,4.0,82,0.00,,,0.00,meteohub,2013-05-16 10:42:00,
2013-05-16 03:47:00,61.9,56.7,29.96,WNW,293,2.0,4.0,83,0.00,,,0.00,meteohub,2013-05-16 10:47:00,
2013-05-16 03:52:00,61.9,56.3,29.96,West,270,3.0,4.0,82,0.00,,,0.00,meteohub,2013-05-16 10:52:00,
2013-05-16 03:57:00,61.9,56.7,29.97,South,180,2.0,4.0,83,0.00,,,0.00,meteohub,2013-05-16 10:57:00,
2013-05-16 04:02:00,61.9,56.3,29.97,South,180,2.0,4.0,82,0.00,,,0.00,meteohub,2013-05-16 11:02:00,
2013-05-16 04:07:00,61.9,56.3,29.96,South,180,4.0,4.0,82,0.00,,,0.00,meteohub,2013-05-16 11:07:00,
2013-05-16 04:12:00,61.9,56.3,29.96,West,270,2.0,5.0,82,0.00,,,0.00,meteohub,2013-05-16 11:12:00,
2013-05-16 04:17:00,61.9,56.3,29.96,West,270,4.0,5.0,82,0.00,,,0.00,meteohub,2013-05-16 11:17:00,
2013-05-16 04:22:00,61.9,56.3,29.96,West,270,2.0,5.0,82,0.00,,,0.00,meteohub,2013-05-16 11:22:00,
2013-05-16 04:27:00,61.9,56.3,29.96,South,180,2.0,4.0,82,0.00,,,0.00,meteohub,2013-05-16 11:27:00,
2013-05-16 04:32:00,61.9,56.3,29.96,South,180,2.0,5.0,82,0.00,,,0.00,meteohub,2013-05-16 11:32:00,
2013-05-16 04:37:00,61.9,56.3,29.96,South,180,5.0,5.0,82,0.00,,,0.00,meteohub,2013-05-16 11:37:00,
2013-05-16 04:42:00,61.9,56.3,29.96,South,180,3.0,5.0,82,0.00,,,0.00,meteohub,2013-05-16 11:42:00,
2013-05-16 04:47:00,61.9,56.3,29.96,West,270,2.0,5.0,82,0.00,,,0.00,meteohub,2013-05-16 11:47:00,
2013-05-16 04:52:00,61.9,56.3,29.96,South,180,4.0,5.0,82,0.00,,,0.00,meteohub,2013-05-16 11:52:00,
2013-05-16 04:57:00,61.9,55.9,29.96,West,270,6.0,6.0,81,0.00,,,0.00,meteohub,2013-05-16 11:57:00,
2013-05-16 05:02:00,61.9,55.9,29.96,South,180,4.0,6.0,81,0.00,,,0.00,meteohub,2013-05-16 12:02:00,
2013-05-16 05:07:00,61.9,55.9,29.96,South,180,2.0,6.0,81,0.00,,,0.00,meteohub,2013-05-16 12:07:00,
2013-05-16 05:12:00,61.7,55.8,29.96,West,270,1.0,6.0,81,0.00,,,0.00,meteohub,2013-05-16 12:12:00,
2013-05-16 05:17:00,61.7,55.8,29.96,West,270,2.0,4.0,81,0.00,,,0.00,meteohub,2013-05-16 12:17:00,
2013-05-16 05:22:00,61.7,56.1,29.96,South,180,4.0,4.0,82,0.00,,,0.00,meteohub,2013-05-16 12:22:00,
2013-05-16 05:27:00,61.7,55.8,29.96,South,180,3.0,5.0,81,0.00,,,0.00,meteohub,2013-05-16 12:27:00,
2013-05-16 05:32:00,61.9,55.9,29.97,South,180,4.0,5.0,81,0.00,,,0.00,meteohub,2013-05-16 12:32:00,
2013-05-16 05:37:00,61.9,55.9,29.97,South,180,2.0,5.0,81,0.00,,,0.00,meteohub,2013-05-16 12:37:00,
2013-05-16 05:42:00,61.9,55.9,29.97,NW,315,2.0,5.0,81,0.00,,,0.00,meteohub,2013-05-16 12:42:00,
2013-05-16 05:48:00,61.7,55.8,29.97,South,180,2.0,4.0,81,0.00,,,0.00,meteohub,2013-05-16 12:48:00,
2013-05-16 05:53:00,61.7,55.8,29.97,South,180,2.0,4.0,81,0.00,,,0.00,meteohub,2013-05-16 12:53:00,
2013-05-16 05:58:00,61.7,55.8,29.97,South,180,1.0,4.0,81,0.00,,,0.00,meteohub,2013-05-16 12:58:00,
2013-05-16 06:03:00,61.9,55.9,29.97,South,180,2.0,3.0,81,0.00,,,0.00,meteohub,2013-05-16 13:03:00,
2013-05-16 06:08:00,61.9,55.9,29.97,SE,135,2.0,3.0,81,0.00,,,0.00,meteohub,2013-05-16 13:08:00,
2013-05-16 06:13:00,62.1,56.1,29.97,SE,135,0.0,2.0,81,0.00,,,0.00,meteohub,2013-05-16 13:13:00,
2013-05-16 06:18:00,62.1,56.1,29.98,SE,135,2.0,2.0,81,0.00,,,0.00,meteohub,2013-05-16 13:18:00,
2013-05-16 06:23:00,62.2,56.3,29.98,SE,135,2.0,2.0,81,0.00,,,0.00,meteohub,2013-05-16 13:23:00,
2013-05-16 06:28:00,62.2,56.3,29.97,SE,135,2.0,2.0,81,0.00,,,0.00,meteohub,2013-05-16 13:28:00,
2013-05-16 06:33:00,62.4,56.5,29.98,SSE,158,2.0,4.0,81,0.00,,,0.00,meteohub,2013-05-16 13:33:00,
2013-05-16 06:38:00,62.6,56.3,29.98,South,180,3.0,4.0,80,0.00,,,0.00,meteohub,2013-05-16 13:38:00,
2013-05-16 06:43:00,62.6,56.3,29.98,South,180,4.0,4.0,80,0.00,,,0.00,meteohub,2013-05-16 13:43:00,
2013-05-16 06:48:00,62.8,56.5,29.98,SSE,158,2.0,4.0,80,0.00,,,0.00,meteohub,2013-05-16 13:48:00,
2013-05-16 06:53:00,63.0,56.3,29.98,South,180,2.0,4.0,79,0.00,,,0.00,meteohub,2013-05-16 13:53:00,
2013-05-16 06:58:00,63.1,56.5,29.99,SE,135,2.0,4.0,79,0.00,,,0.00,meteohub,2013-05-16 13:58:00,
2013-05-16 07:03:00,63.1,56.5,29.98,SE,135,4.0,5.0,79,0.00,,,0.00,meteohub,2013-05-16 14:03:00,
2013-05-16 07:08:00,63.3,56.7,29.98,SE,135,1.0,5.0,79,0.00,,,0.00,meteohub,2013-05-16 14:08:00,
2013-05-16 07:13:00,63.5,56.5,29.98,South,180,2.0,5.0,78,0.00,,,0.00,meteohub,2013-05-16 14:13:00,
2013-05-16 07:18:00,63.5,56.5,29.98,South,180,2.0,4.0,78,0.00,,,0.00,meteohub,2013-05-16 14:18:00,
2013-05-16 07:23:00,63.5,56.5,29.98,West,270,2.0,4.0,78,0.00,,,0.00,meteohub,2013-05-16 14:23:00,
2013-05-16 07:28:00,63.5,56.5,29.98,South,180,4.0,4.0,78,0.00,,,0.00,meteohub,2013-05-16 14:28:00,
2013-05-16 07:33:00,63.5,56.1,29.98,SSW,203,3.0,5.0,77,0.00,,,0.00,meteohub,2013-05-16 14:33:00,
2013-05-16 07:38:00,63.7,56.3,29.98,South,180,5.0,5.0,77,0.00,,,0.00,meteohub,2013-05-16 14:38:00,
2013-05-16 07:43:00,63.9,56.1,29.99,South,180,4.0,5.0,76,0.00,,,0.00,meteohub,2013-05-16 14:43:00,
2013-05-16 07:48:00,64.2,56.5,29.99,South,180,2.0,5.0,76,0.00,,,0.00,meteohub,2013-05-16 14:48:00,
2013-05-16 07:53:00,64.2,56.5,29.99,South,180,3.0,5.0,76,0.00,,,0.00,meteohub,2013-05-16 14:53:00,
2013-05-16 07:58:00,64.2,56.5,29.99,West,270,3.0,4.0,76,0.00,,,0.00,meteohub,2013-05-16 14:58:00,
2013-05-16 08:03:00,64.2,56.1,29.99,West,270,4.0,6.0,75,0.00,,,0.00,meteohub,2013-05-16 15:03:00,
2013-05-16 08:08:00,64.2,56.1,29.99,South,180,3.0,6.0,75,0.00,,,0.00,meteohub,2013-05-16 15:08:00,
2013-05-16 08:13:00,64.6,56.5,29.99,SSW,203,2.0,6.0,75,0.00,,,0.00,meteohub,2013-05-16 15:13:00,
2013-05-16 08:18:00,64.6,56.5,29.99,West,270,2.0,5.0,75,0.00,,,0.00,meteohub,2013-05-16 15:18:00,
2013-05-16 08:23:00,64.6,56.5,29.99,South,180,2.0,5.0,75,0.00,,,0.00,meteohub,2013-05-16 15:23:00,
2013-05-16 08:28:00,64.9,57.2,29.99,West,270,3.0,5.0,76,0.00,,,0.00,meteohub,2013-05-16 15:28:00,
2013-05-16 08:33:00,65.1,57.7,29.99,West,270,1.0,5.0,77,0.00,,,0.00,meteohub,2013-05-16 15:33:00,
2013-05-16 08:38:00,65.3,56.8,29.99,South,180,2.0,4.0,74,0.00,,,0.00,meteohub,2013-05-16 15:38:00,
2013-05-16 08:44:00,65.3,56.5,29.99,SE,135,3.0,4.0,73,0.00,,,0.00,meteohub,2013-05-16 15:44:00,
2013-05-16 08:49:00,65.3,56.8,29.99,West,270,2.0,4.0,74,0.00,,,0.00,meteohub,2013-05-16 15:49:00,
2013-05-16 08:54:00,65.3,57.2,29.99,South,180,2.0,4.0,75,0.00,,,0.00,meteohub,2013-05-16 15:54:00,
2013-05-16 08:59:00,65.5,57.0,29.99,West,270,4.0,4.0,74,0.00,,,0.00,meteohub,2013-05-16 15:59:00,
2013-05-16 09:04:00,65.5,57.4,29.99,NW,315,4.0,4.0,75,0.00,,,0.00,meteohub,2013-05-16 16:04:00,
2013-05-16 09:09:00,65.1,57.4,30.00,West,270,4.0,4.0,76,0.00,,,0.00,meteohub,2013-05-16 16:09:00,
2013-05-16 09:14:00,65.1,57.4,29.99,NW,315,1.0,5.0,76,0.00,,,0.00,meteohub,2013-05-16 16:14:00,
2013-05-16 09:19:00,65.3,57.6,29.99,NW,315,2.0,5.0,76,0.00,,,0.00,meteohub,2013-05-16 16:19:00,
2013-05-16 09:24:00,65.5,56.7,30.00,SE,135,3.0,5.0,73,0.00,,,0.00,meteohub,2013-05-16 16:24:00,
2013-05-16 09:29:00,65.8,56.5,29.99,South,180,4.0,4.0,72,0.00,,,0.00,meteohub,2013-05-16 16:29:00,
2013-05-16 09:34:00,65.7,56.3,29.99,SW,225,3.0,4.0,72,0.00,,,0.00,meteohub,2013-05-16 16:34:00,
2013-05-16 09:39:00,65.8,57.0,30.00,West,270,2.0,4.0,73,0.00,,,0.00,meteohub,2013-05-16 16:39:00,
2013-05-16 09:44:00,66.2,57.2,29.99,West,270,3.0,4.0,73,0.00,,,0.00,meteohub,2013-05-16 16:44:00,
2013-05-16 09:49:00,66.4,57.0,30.00,West,270,2.0,4.0,72,0.00,,,0.00,meteohub,2013-05-16 16:49:00,
2013-05-16 09:54:00,66.6,56.8,30.00,South,180,3.0,4.0,71,0.00,,,0.00,meteohub,2013-05-16 16:54:00,
2013-05-16 09:59:00,66.6,56.8,30.00,SSW,203,2.0,4.0,71,0.00,,,0.00,meteohub,2013-05-16 16:59:00,
2013-05-16 10:04:00,66.7,57.0,30.00,South,180,1.0,4.0,71,0.00,,,0.00,meteohub,2013-05-16 17:04:00,
2013-05-16 10:09:00,66.7,56.7,30.00,West,270,2.0,5.0,70,0.00,,,0.00,meteohub,2013-05-16 17:09:00,
2013-05-16 10:14:00,67.1,57.0,30.00,WNW,293,4.0,5.0,70,0.00,,,0.00,meteohub,2013-05-16 17:14:00,
2013-05-16 10:19:00,66.6,56.5,30.00,NW,315,4.0,5.0,70,0.00,,,0.00,meteohub,2013-05-16 17:19:00,
2013-05-16 10:24:00,66.4,56.3,30.00,West,270,4.0,4.0,70,0.00,,,0.00,meteohub,2013-05-16 17:24:00,
2013-05-16 10:29:00,66.4,56.7,29.99,West,270,5.0,5.0,71,0.00,,,0.00,meteohub,2013-05-16 17:29:00,
2013-05-16 10:34:00,66.6,56.8,30.00,NW,315,8.0,8.0,71,0.00,,,0.00,meteohub,2013-05-16 17:34:00,
2013-05-16 10:39:00,66.2,56.8,30.00,West,270,6.0,6.0,72,0.00,,,0.00,meteohub,2013-05-16 17:39:00,
2013-05-16 10:44:00,66.4,56.7,30.00,NW,315,5.0,9.0,71,0.00,,,0.00,meteohub,2013-05-16 17:44:00,
2013-05-16 10:49:00,66.4,56.7,30.00,West,270,4.0,9.0,71,0.00,,,0.00,meteohub,2013-05-16 17:49:00,
2013-05-16 10:54:00,66.6,56.5,30.00,NW,315,7.0,9.0,70,0.00,,,0.00,meteohub,2013-05-16 17:54:00,
2013-05-16 10:59:00,66.7,56.7,30.00,West,270,3.0,7.0,70,0.00,,,0.00,meteohub,2013-05-16 17:59:00,
2013-05-16 11:04:00,67.1,56.7,30.00,West,270,4.0,8.0,69,0.00,,,0.00,meteohub,2013-05-16 18:04:00,
2013-05-16 11:09:00,68.0,57.0,30.00,West,270,4.0,8.0,68,0.00,,,0.00,meteohub,2013-05-16 18:09:00,
2013-05-16 11:14:00,68.5,56.7,30.00,NW,315,2.0,8.0,66,0.00,,,0.00,meteohub,2013-05-16 18:14:00,
2013-05-16 11:19:00,69.4,57.2,30.00,NW,315,5.0,7.0,65,0.00,,,0.00,meteohub,2013-05-16 18:19:00,
2013-05-16 11:24:00,70.2,56.5,29.99,West,270,5.0,6.0,62,0.00,,,0.00,meteohub,2013-05-16 18:24:00,
2013-05-16 11:29:00,70.5,56.8,29.99,NW,315,5.0,5.0,62,0.00,,,0.00,meteohub,2013-05-16 18:29:00,
2013-05-16 11:34:00,70.3,56.3,29.99,WNW,293,8.0,8.0,61,0.00,,,0.00,meteohub,2013-05-16 18:34:00,
2013-05-16 11:39:00,69.4,56.7,29.99,NW,315,8.0,8.0,64,0.00,,,0.00,meteohub,2013-05-16 18:39:00,
2013-05-16 11:44:00,70.2,57.0,29.99,NW,315,4.0,10.0,63,0.00,,,0.00,meteohub,2013-05-16 18:44:00,
2013-05-16 11:49:00,70.9,56.8,29.99,West,270,2.0,10.0,61,0.00,,,0.00,meteohub,2013-05-16 18:49:00,
2013-05-16 11:54:00,70.9,56.8,29.99,NW,315,4.0,10.0,61,0.00,,,0.00,meteohub,2013-05-16 18:54:00,
2013-05-16 11:59:00,69.6,56.5,29.99,West,270,8.0,8.0,63,0.00,,,0.00,meteohub,2013-05-16 18:59:00,
2013-05-16 12:04:00,69.8,57.0,29.99,WNW,293,7.0,9.0,64,0.00,,,0.00,meteohub,2013-05-16 19:04:00,
2013-05-16 12:09:00,70.0,57.7,29.99,West,270,8.0,9.0,65,0.00,,,0.00,meteohub,2013-05-16 19:09:00,
2013-05-16 12:14:00,70.7,57.0,29.99,NW,315,7.0,9.0,62,0.00,,,0.00,meteohub,2013-05-16 19:14:00,
2013-05-16 12:20:00,70.9,57.2,29.98,NW,315,5.0,9.0,62,0.00,,,0.00,meteohub,2013-05-16 19:20:00,
2013-05-16 12:25:00,71.6,57.0,29.99,NW,315,6.0,9.0,60,0.00,,,0.00,meteohub,2013-05-16 19:25:00,
2013-05-16 12:30:00,71.8,57.2,29.98,NW,315,9.0,9.0,60,0.00,,,0.00,meteohub,2013-05-16 19:30:00,
2013-05-16 12:35:00,71.4,57.7,29.98,NW,315,8.0,10.0,62,0.00,,,0.00,meteohub,2013-05-16 19:35:00,
2013-05-16 12:40:00,71.2,57.0,29.98,NW,315,10.0,11.0,61,0.00,,,0.00,meteohub,2013-05-16 19:40:00,
2013-05-16 12:45:00,71.6,57.9,29.98,NW,315,8.0,11.0,62,0.00,,,0.00,meteohub,2013-05-16 19:45:00,
2013-05-16 12:50:00,72.1,57.9,29.98,NW,315,5.0,11.0,61,0.00,,,0.00,meteohub,2013-05-16 19:50:00,
2013-05-16 12:55:00,73.6,58.3,29.97,NW,315,8.0,11.0,59,0.00,,,0.00,meteohub,2013-05-16 19:55:00,
2013-05-16 13:00:00,72.1,57.6,29.97,NW,315,5.0,10.0,60,0.00,,,0.00,meteohub,2013-05-16 20:00:00,
2013-05-16 13:05:00,72.1,58.5,29.98,North,0,5.0,11.0,62,0.00,,,0.00,meteohub,2013-05-16 20:05:00,
2013-05-16 13:10:00,72.3,58.1,29.97,NW,315,8.0,11.0,61,0.00,,,0.00,meteohub,2013-05-16 20:10:00,
2013-05-16 13:15:00,73.6,57.4,29.97,WNW,293,11.0,11.0,57,0.00,,,0.00,meteohub,2013-05-16 20:15:00,
2013-05-16 13:20:00,73.6,57.9,29.97,NW,315,4.0,11.0,58,0.00,,,0.00,meteohub,2013-05-16 20:20:00,
2013-05-16 13:25:00,74.1,58.8,29.97,North,0,7.0,11.0,59,0.00,,,0.00,meteohub,2013-05-16 20:25:00,
2013-05-16 13:30:00,73.4,58.6,29.97,NNE,23,8.0,12.0,60,0.00,,,0.00,meteohub,2013-05-16 20:30:00,
2013-05-16 13:35:00,72.7,57.9,29.96,NW,315,7.0,12.0,60,0.00,,,0.00,meteohub,2013-05-16 20:35:00,
2013-05-16 13:40:00,72.9,58.1,29.97,NW,315,8.0,12.0,60,0.00,,,0.00,meteohub,2013-05-16 20:40:00,
2013-05-16 13:45:00,72.7,57.9,29.97,NW,315,11.0,13.0,60,0.00,,,0.00,meteohub,2013-05-16 20:45:00,
2013-05-16 13:50:00,72.1,58.8,29.96,WNW,293,11.0,13.0,63,0.00,,,0.00,meteohub,2013-05-16 20:50:00,
2013-05-16 13:55:00,73.0,58.8,29.96,West,270,11.0,13.0,61,0.00,,,0.00,meteohub,2013-05-16 20:55:00,
2013-05-16 14:00:00,73.2,59.0,29.96,North,0,7.0,13.0,61,0.00,,,0.00,meteohub,2013-05-16 21:00:00,
2013-05-16 14:05:00,73.9,58.6,29.96,NW,315,11.0,13.0,59,0.00,,,0.00,meteohub,2013-05-16 21:05:00,
2013-05-16 14:10:00,74.1,58.8,29.95,NW,315,9.0,13.0,59,0.00,,,0.00,meteohub,2013-05-16 21:10:00,
2013-05-16 14:15:00,73.4,58.6,29.96,WNW,293,8.0,11.0,60,0.00,,,0.00,meteohub,2013-05-16 21:15:00,
2013-05-16 14:21:00,72.9,58.6,29.95,West,270,11.0,11.0,61,0.00,,,0.00,meteohub,2013-05-16 21:21:00,
2013-05-16 14:26:00,73.4,58.6,29.95,West,270,9.0,13.0,60,0.00,,,0.00,meteohub,2013-05-16 21:26:00,
2013-05-16 14:31:00,73.4,58.3,29.94,NW,315,11.0,13.0,59,0.00,,,0.00,meteohub,2013-05-16 21:31:00,
2013-05-16 14:36:00,73.0,58.8,29.95,NW,315,11.0,11.0,61,0.00,,,0.00,meteohub,2013-05-16 21:36:00,
2013-05-16 14:41:00,73.0,59.2,29.94,NW,315,10.0,11.0,62,0.00,,,0.00,meteohub,2013-05-16 21:41:00,
2013-05-16 14:46:00,73.0,59.2,29.94,West,270,8.0,11.0,62,0.00,,,0.00,meteohub,2013-05-16 21:46:00,
2013-05-16 14:51:00,72.3,59.0,29.94,NW,315,8.0,11.0,63,0.00,,,0.00,meteohub,2013-05-16 21:51:00,
2013-05-16 14:56:00,72.3,58.6,29.94,NW,315,10.0,11.0,62,0.00,,,0.00,meteohub,2013-05-16 21:56:00,
2013-05-16 15:01:00,72.0,58.6,29.94,West,270,10.0,11.0,63,0.00,,,0.00,meteohub,2013-05-16 22:01:00,
2013-05-16 15:06:00,71.8,58.5,29.94,NW,315,10.0,13.0,63,0.00,,,0.00,meteohub,2013-05-16 22:06:00,
2013-05-16 15:11:00,71.6,58.3,29.94,West,270,9.0,13.0,63,0.00,,,0.00,meteohub,2013-05-16 22:11:00,
2013-05-16 15:16:00,71.4,58.6,29.93,West,270,9.0,14.0,64,0.00,,,0.00,meteohub,2013-05-16 22:16:00,
2013-05-16 15:21:00,71.6,58.8,29.93,NW,315,9.0,14.0,64,0.00,,,0.00,meteohub,2013-05-16 22:21:00,
2013-05-16 15:26:00,72.1,58.5,29.93,NW,315,12.0,13.0,62,0.00,,,0.00,meteohub,2013-05-16 22:26:00,
2013-05-16 15:31:00,71.6,58.3,29.93,WNW,293,12.0,12.0,63,0.00,,,0.00,meteohub,2013-05-16 22:31:00,
2013-05-16 15:36:00,71.4,59.0,29.93,West,270,8.0,15.0,65,0.00,,,0.00,meteohub,2013-05-16 22:36:00,
2013-05-16 15:41:00,72.3,58.6,29.93,NW,315,11.0,15.0,62,0.00,,,0.00,meteohub,2013-05-16 22:41:00,
2013-05-16 15:46:00,72.0,58.6,29.92,NW,315,8.0,15.0,63,0.00,,,0.00,meteohub,2013-05-16 22:46:00,
2013-05-16 15:51:00,71.8,59.0,29.92,WNW,293,10.0,15.0,64,0.00,,,0.00,meteohub,2013-05-16 22:51:00,
2013-05-16 15:56:00,71.4,58.6,29.92,NW,315,10.0,15.0,64,0.00,,,0.00,meteohub,2013-05-16 22:56:00,
2013-05-16 16:01:00,72.0,59.2,29.92,NW,315,7.0,13.0,64,0.00,,,0.00,meteohub,2013-05-16 23:01:00,
2013-05-16 16:06:00,72.5,58.8,29.92,WNW,293,11.0,15.0,62,0.00,,,0.00,meteohub,2013-05-16 23:06:00,
2013-05-16 16:11:00,72.0,59.2,29.91,NW,315,8.0,15.0,64,0.00,,,0.00,meteohub,2013-05-16 23:11:00,
2013-05-16 16:16:00,72.1,58.8,29.92,NW,315,11.0,15.0,63,0.00,,,0.00,meteohub,2013-05-16 23:16:00,
2013-05-16 16:21:00,71.2,58.8,29.92,West,270,11.0,14.0,65,0.00,,,0.00,meteohub,2013-05-16 23:21:00,
2013-05-16 16:26:00,71.1,59.2,29.92,West,270,10.0,14.0,66,0.00,,,0.00,meteohub,2013-05-16 23:26:00,
2013-05-16 16:31:00,70.9,59.4,29.92,NW,315,11.0,14.0,67,0.00,,,0.00,meteohub,2013-05-16 23:31:00,
2013-05-16 16:36:00,70.9,59.0,29.92,NW,315,10.0,13.0,66,0.00,,,0.00,meteohub,2013-05-16 23:36:00,
2013-05-16 16:41:00,71.4,59.5,29.92,WNW,293,11.0,17.0,66,0.00,,,0.00,meteohub,2013-05-16 23:41:00,
2013-05-16 16:46:00,70.9,58.5,29.92,West,270,14.0,17.0,65,0.00,,,0.00,meteohub,2013-05-16 23:46:00,
2013-05-16 16:52:00,70.2,59.2,29.92,WNW,293,14.0,14.0,68,0.00,,,0.00,meteohub,2013-05-16 23:52:00,
2013-05-16 16:56:00,70.2,58.6,29.92,NW,315,11.0,16.0,67,0.00,,,0.00,meteohub,2013-05-16 23:56:00,
2013-05-16 17:02:00,70.2,58.6,29.92,NW,315,8.0,16.0,67,0.00,,,0.00,meteohub,2013-05-17 00:02:00,
2013-05-16 17:07:00,69.1,58.5,29.92,WNW,293,9.0,16.0,69,0.00,,,0.00,meteohub,2013-05-17 00:07:00,
2013-05-16 17:12:00,68.7,59.0,29.92,NW,315,10.0,13.0,71,0.00,,,0.00,meteohub,2013-05-17 00:12:00,
2013-05-16 17:17:00,69.1,59.4,29.92,NW,315,8.0,13.0,71,0.00,,,0.00,meteohub,2013-05-17 00:17:00,
2013-05-16 17:22:00,69.8,58.3,29.92,NW,315,11.0,15.0,67,0.00,,,0.00,meteohub,2013-05-17 00:22:00,
2013-05-16 17:27:00,69.3,58.3,29.91,WNW,293,12.0,15.0,68,0.00,,,0.00,meteohub,2013-05-17 00:27:00,
2013-05-16 17:32:00,69.3,58.3,29.91,NW,315,13.0,15.0,68,0.00,,,0.00,meteohub,2013-05-17 00:32:00,
2013-05-16 17:37:00,68.7,58.1,29.91,NW,315,11.0,15.0,69,0.00,,,0.00,meteohub,2013-05-17 00:37:00,
2013-05-16 17:42:00,68.2,58.1,29.91,West,270,12.0,16.0,70,0.00,,,0.00,meteohub,2013-05-17 00:42:00,
2013-05-16 17:47:00,67.5,57.7,29.91,NW,315,11.0,16.0,71,0.00,,,0.00,meteohub,2013-05-17 00:47:00,
2013-05-16 17:52:00,67.3,57.6,29.91,NW,315,12.0,16.0,71,0.00,,,0.00,meteohub,2013-05-17 00:52:00,
2013-05-16 17:57:00,66.7,57.4,29.92,NW,315,8.0,15.0,72,0.00,,,0.00,meteohub,2013-05-17 00:57:00,
2013-05-16 18:02:00,66.7,57.7,29.92,West,270,8.0,15.0,73,0.00,,,0.00,meteohub,2013-05-17 01:02:00,
2013-05-16 18:07:00,66.6,58.1,29.92,NW,315,8.0,13.0,74,0.00,,,0.00,meteohub,2013-05-17 01:07:00,
2013-05-16 18:12:00,66.6,58.5,29.92,West,270,9.0,13.0,75,0.00,,,0.00,meteohub,2013-05-17 01:12:00,
2013-05-16 18:17:00,66.6,58.5,29.92,WNW,293,11.0,13.0,75,0.00,,,0.00,meteohub,2013-05-17 01:17:00,
2013-05-16 18:22:00,66.7,58.6,29.92,NW,315,4.0,12.0,75,0.00,,,0.00,meteohub,2013-05-17 01:22:00,
2013-05-16 18:27:00,66.9,58.8,29.92,North,0,4.0,12.0,75,0.00,,,0.00,meteohub,2013-05-17 01:27:00,
2013-05-16 18:32:00,66.7,58.6,29.92,NW,315,4.0,12.0,75,0.00,,,0.00,meteohub,2013-05-17 01:32:00,
2013-05-16 18:37:00,66.7,58.6,29.91,NW,315,4.0,8.0,75,0.00,,,0.00,meteohub,2013-05-17 01:37:00,
2013-05-16 18:42:00,66.6,58.5,29.91,NW,315,4.0,7.0,75,0.00,,,0.00,meteohub,2013-05-17 01:42:00,
2013-05-16 18:47:00,66.4,58.6,29.91,NW,315,5.0,7.0,76,0.00,,,0.00,meteohub,2013-05-17 01:47:00,
2013-05-16 18:52:00,66.4,58.6,29.92,NNE,23,6.0,7.0,76,0.00,,,0.00,meteohub,2013-05-17 01:52:00,
2013-05-16 18:57:00,66.4,58.6,29.92,North,0,5.0,7.0,76,0.00,,,0.00,meteohub,2013-05-17 01:57:00,
2013-05-16 19:02:00,66.2,58.5,29.92,West,270,4.0,6.0,76,0.00,,,0.00,meteohub,2013-05-17 02:02:00,
2013-05-16 19:07:00,66.2,58.5,29.92,NW,315,5.0,6.0,76,0.00,,,0.00,meteohub,2013-05-17 02:07:00,
2013-05-16 19:12:00,65.8,58.5,29.92,North,0,3.0,6.0,77,0.00,,,0.00,meteohub,2013-05-17 02:12:00,
2013-05-16 19:17:00,65.7,58.3,29.92,North,0,4.0,5.0,77,0.00,,,0.00,meteohub,2013-05-17 02:17:00,
2013-05-16 19:22:00,65.5,58.1,29.93,WNW,293,5.0,5.0,77,0.00,,,0.00,meteohub,2013-05-17 02:22:00,
2013-05-16 19:27:00,65.3,58.3,29.92,NW,315,2.0,8.0,78,0.00,,,0.00,meteohub,2013-05-17 02:27:00,
2013-05-16 19:32:00,65.1,58.1,29.93,NW,315,2.0,8.0,78,0.00,,,0.00,meteohub,2013-05-17 02:32:00,
2013-05-16 19:37:00,65.1,58.5,29.93,WNW,293,4.0,8.0,79,0.00,,,0.00,meteohub,2013-05-17 02:37:00,
2013-05-16 19:42:00,64.9,57.9,29.93,NW,315,2.0,8.0,78,0.00,,,0.00,meteohub,2013-05-17 02:42:00,
2013-05-16 19:47:00,64.8,58.1,29.93,North,0,4.0,7.0,79,0.00,,,0.00,meteohub,2013-05-17 02:47:00,
2013-05-16 19:52:00,64.4,57.7,29.93,North,0,3.0,7.0,79,0.00,,,0.00,meteohub,2013-05-17 02:52:00,
2013-05-16 19:57:00,64.2,57.6,29.93,North,0,2.0,4.0,79,0.00,,,0.00,meteohub,2013-05-17 02:57:00,
2013-05-16 20:02:00,64.2,57.9,29.93,NW,315,6.0,6.0,80,0.00,,,0.00,meteohub,2013-05-17 03:02:00,
2013-05-16 20:07:00,64.0,57.7,29.93,NW,315,5.0,6.0,80,0.00,,,0.00,meteohub,2013-05-17 03:07:00,
2013-05-16 20:12:00,63.7,57.4,29.93,West,270,6.0,8.0,80,0.00,,,0.00,meteohub,2013-05-17 03:12:00,
2013-05-16 20:17:00,63.7,57.4,29.93,NW,315,8.0,8.0,80,0.00,,,0.00,meteohub,2013-05-17 03:17:00,
2013-05-16 20:22:00,63.5,57.2,29.93,WNW,293,7.0,8.0,80,0.00,,,0.00,meteohub,2013-05-17 03:22:00,
2013-05-16 20:27:00,63.5,57.2,29.93,West,270,8.0,8.0,80,0.00,,,0.00,meteohub,2013-05-17 03:27:00,
2013-05-16 20:32:00,63.3,57.0,29.93,NW,315,6.0,8.0,80,0.00,,,0.00,meteohub,2013-05-17 03:32:00,
2013-05-16 20:37:00,63.5,57.6,29.94,NW,315,6.0,8.0,81,0.00,,,0.00,meteohub,2013-05-17 03:37:00,
2013-05-16 20:42:00,63.5,57.6,29.94,NW,315,8.0,8.0,81,0.00,,,0.00,meteohub,2013-05-17 03:42:00,
2013-05-16 20:47:00,63.3,58.1,29.94,West,270,10.0,10.0,83,0.00,,,0.00,meteohub,2013-05-17 03:47:00,
2013-05-16 20:52:00,63.0,58.1,29.94,West,270,8.0,10.0,84,0.00,,,0.00,meteohub,2013-05-17 03:52:00,
2013-05-16 20:57:00,62.8,57.9,29.94,NW,315,8.0,10.0,84,0.00,,,0.00,meteohub,2013-05-17 03:57:00,
2013-05-16 21:01:00,62.8,57.6,29.95,NW,315,9.0,10.0,83,0.00,,,0.00,meteohub,2013-05-17 04:01:00,
2013-05-16 21:06:00,62.6,57.7,29.95,NW,315,8.0,10.0,84,0.00,,,0.00,meteohub,2013-05-17 04:06:00,
2013-05-16 21:11:00,62.6,58.1,29.95,NW,315,8.0,9.0,85,0.00,,,0.00,meteohub,2013-05-17 04:11:00,
2013-05-16 21:16:00,62.4,57.6,29.95,NW,315,7.0,9.0,84,0.00,,,0.00,meteohub,2013-05-17 04:16:00,
2013-05-16 21:21:00,62.4,57.6,29.95,WNW,293,8.0,8.0,84,0.00,,,0.00,meteohub,2013-05-17 04:21:00,
2013-05-16 21:26:00,62.4,57.6,29.96,NW,315,7.0,8.0,84,0.00,,,0.00,meteohub,2013-05-17 04:26:00,
2013-05-16 21:31:00,62.4,57.9,29.95,NW,315,6.0,8.0,85,0.00,,,0.00,meteohub,2013-05-17 04:31:00,
2013-05-16 21:36:00,62.4,57.9,29.95,WNW,293,5.0,8.0,85,0.00,,,0.00,meteohub,2013-05-17 04:36:00,
2013-05-16 21:41:00,62.2,57.7,29.95,NW,315,5.0,8.0,85,0.00,,,0.00,meteohub,2013-05-17 04:41:00,
2013-05-16 21:46:00,62.2,57.9,29.95,NW,315,4.0,8.0,86,0.00,,,0.00,meteohub,2013-05-17 04:46:00,
2013-05-16 21:51:00,62.2,57.7,29.95,NW,315,6.0,8.0,85,0.00,,,0.00,meteohub,2013-05-17 04:51:00,
2013-05-16 21:57:00,62.2,57.7,29.95,NW,315,4.0,8.0,85,0.00,,,0.00,meteohub,2013-05-17 04:57:00,
2013-05-16 22:02:00,62.4,57.9,29.96,NW,315,6.0,6.0,85,0.00,,,0.00,meteohub,2013-05-17 05:02:00,
2013-05-16 22:07:00,62.4,57.9,29.96,WNW,293,6.0,6.0,85,0.00,,,0.00,meteohub,2013-05-17 05:07:00,
2013-05-16 22:12:00,62.4,57.9,29.96,NW,315,4.0,6.0,85,0.00,,,0.00,meteohub,2013-05-17 05:12:00,
2013-05-16 22:17:00,62.4,58.1,29.96,NW,315,4.0,6.0,86,0.00,,,0.00,meteohub,2013-05-17 05:17:00,
2013-05-16 22:22:00,62.4,57.9,29.96,NW,315,5.0,6.0,85,0.00,,,0.00,meteohub,2013-05-17 05:22:00,
2013-05-16 22:27:00,62.2,57.7,29.95,NW,315,5.0,7.0,85,0.00,,,0.00,meteohub,2013-05-17 05:27:00,
2013-05-16 22:32:00,62.4,58.1,29.96,NW,315,4.0,7.0,86,0.00,,,0.00,meteohub,2013-05-17 05:32:00,
2013-05-16 22:37:00,62.4,58.1,29.96,NW,315,3.0,5.0,86,0.00,,,0.00,meteohub,2013-05-17 05:37:00,
2013-05-16 22:42:00,62.6,58.1,29.96,NW,315,5.0,5.0,85,0.00,,,0.00,meteohub,2013-05-17 05:42:00,
2013-05-16 22:47:00,62.6,58.1,29.95,NW,315,4.0,5.0,85,0.00,,,0.00,meteohub,2013-05-17 05:47:00,
2013-05-16 22:52:00,62.8,58.3,29.95,NW,315,5.0,5.0,85,0.00,,,0.00,meteohub,2013-05-17 05:52:00,
2013-05-16 22:57:00,62.8,58.3,29.96,WNW,293,4.0,5.0,85,0.00,,,0.00,meteohub,2013-05-17 05:57:00,
2013-05-16 23:02:00,62.8,57.9,29.95,West,270,4.0,6.0,84,0.00,,,0.00,meteohub,2013-05-17 06:02:00,
2013-05-16 23:07:00,62.8,57.9,29.95,West,270,4.0,6.0,84,0.00,,,0.00,meteohub,2013-05-17 06:07:00,
2013-05-16 23:12:00,62.6,57.7,29.95,NW,315,4.0,6.0,84,0.00,,,0.00,meteohub,2013-05-17 06:12:00,
2013-05-16 23:17:00,62.6,57.7,29.95,NW,315,4.0,5.0,84,0.00,,,0.00,meteohub,2013-05-17 06:17:00,
2013-05-16 23:22:00,62.6,57.7,29.95,WNW,293,4.0,5.0,84,0.00,,,0.00,meteohub,2013-05-17 06:22:00,
2013-05-16 23:27:00,62.6,57.7,29.95,NW,315,4.0,6.0,84,0.00,,,0.00,meteohub,2013-05-17 06:27:00,
2013-05-16 23:32:00,62.6,57.7,29.95,West,270,6.0,6.0,84,0.00,,,0.00,meteohub,2013-05-17 06:32:00,
2013-05-16 23:37:00,62.6,57.4,29.95,NW,315,4.0,6.0,83,0.00,,,0.00,meteohub,2013-05-17 06:37:00,
2013-05-16 23:42:00,62.6,57.4,29.95,NW,315,4.0,6.0,83,0.00,,,0.00,meteohub,2013-05-17 06:42:00,
2013-05-16 23:47:00,62.6,57.7,29.95,NW,315,4.0,6.0,84,0.00,,,0.00,meteohub,2013-05-17 06:47:00,
2013-05-16 23:52:00,62.6,57.7,29.95,NW,315,4.0,4.0,84,0.00,,,0.00,meteohub,2013-05-17 06:52:00,
2013-05-16 23:57:00,62.4,58.1,29.95,NW,315,3.0,4.0,86,0.00,,,0.00,meteohub,2013-05-17 06:57:00,